Location: London
(51.5074°N, 0.1278°W)
Time: 08:08:00
(UTC+00:00)

TIGRISAT - Pass Details

Date: 08 October 2020
Orbit: 606 x 688 km, 97.7° (Epoch: 30 October)

Event Time Altitude Azimuth Distance (km) Brightness Sun altitude
Rises 21:14:51 0° 13° (NNE) 3,010 ? -27.1°
Reaches altitude 10° 21:17:04 10° 14° (NNE) 2,104 ? -27.4°
Enters shadow 21:18:58 25° 14° (NNE) 1,359 ? -27.7°
